Hourly Data Report for June 06, 2017

QUALICUM BEACH AIRPORT
BRITISH COLUMBIA

49°20'14.000" N
124°23'38.000" W
58.20 m
1026562
71766
VOQ

Download Data

Hourly Data (June 2017)
Hourly Data Report for June 6, 2017
TIME
LST
Temp Definition
°C
Dew Point Definition
°C
Rel Hum Definition
%
Precip. Amount Definition
mm

Wind Dir Definition
10's deg

Wind Spd Definition
km/h
Visibility Definition
km
Stn Press Definition
kPa
Hmdx Definition


Wind Chill Definition


Weather Definition


00:00 12.5 9.3 81 0.0 21 1   101.06     LegendNANA
01:00 12.4 9.2 81 0.0 0 1   101.03     LegendNANA
02:00 10.9 8.5 85 0.0 24 2   101.04     LegendNANA
03:00 10.1 8.0 87 0.0 27 2   101.01     LegendNANA
04:00 8.8 7.4 91 0.0 23 1   100.99     LegendNANA
05:00 8.6 7.1 91 0.0 23 2   100.98     LegendNANA
06:00 11.6 8.7 82 0.0 27 1   100.96     LegendNANA
07:00 16.5 8.0 57 0.0 31 6   100.94     LegendNANA
08:00 16.9 7.4 53 0.0 31 7   100.92     LegendNANA
09:00 17.3 9.6 61 0.0 33 8   100.87     LegendNANA
10:00 18.6 10.0 57 0.0 3 6   100.80     LegendNANA
11:00 19.9 6.8 43 0.0 3 7   100.73     LegendNANA
12:00 20.3 8.8 48 0.0 33 6   100.70     LegendNANA
13:00 21.8 7.2 39 0.0 4 7   100.65     LegendNANA
14:00 21.9 8.1 41 0.0 6 5   100.59     LegendNANA
15:00 21.9 6.2 36 0.0 10 9   100.52     LegendNANA
16:00 22.6 6.5 35 0.0 8 6   100.46     LegendNANA
17:00 22.0 6.7 37 0.0 10 8   100.41     LegendNANA
18:00 23.1 6.7 35 0.0 9 3   100.39     LegendNANA
19:00 22.5 6.8 36 0.0 5 4   100.38     LegendNANA
20:00 19.2 9.9 55 0.0 20 1   100.36     LegendNANA
21:00 16.9 9.7 62 0.0 18 2   100.38     LegendNANA
22:00 15.9 10.4 70 0.0 23 2   100.40     LegendNANA
23:00 14.4 9.3 71 0.0 19 3   100.38     LegendNANA

Notes on Data Quality.

Legend

  • E = Estimated
  • M = Missing
  • NA = Not Available*
  • [empty] = Indicates an unobserved value
Date modified: